ELY605 LFPO-LEBL

Flight info

Callsign ELY605
Flight time 1h 38m
Altitude 39000
Route ERIXU DCT ETAMO DCT VALKU DCT ATSUP DCT MINSO DCT DEGOL DCT PPG DCT ALBER
Aircraft B738/M-SDE2E3FGHIRWXY/LB1

Departure

Time 2026-05-05 00:36
Airport Paris-Orly Airport (LFPO)

Arrival

Time 2026-05-05 02:14
Airport Josep Tarradellas Barcelona-El Prat Airport (LEBL)
Time Latitude Longitude Altitude Speed Heading
2026-05-05 00:15 48.72900 2.35658 285 ft 0 kts 118°
2026-05-05 00:21 48.72910 2.35627 294 ft 4 kts 116°
2026-05-05 00:22 48.72918 2.35603 294 ft 4 kts 115°
2026-05-05 00:22 48.72934 2.35554 289 ft 4 kts 123°
2026-05-05 00:22 48.72944 2.35534 293 ft 4 kts 148°
2026-05-05 00:22 48.72957 2.35527 291 ft 0 kts 194°
2026-05-05 00:26 48.72953 2.35526 289 ft 2 kts 194°
2026-05-05 00:27 48.72926 2.35508 291 ft 7 kts 215°
2026-05-05 00:27 48.72902 2.35412 292 ft 12 kts 256°
2026-05-05 00:27 48.72837 2.35317 293 ft 16 kts 197°
2026-05-05 00:27 48.72719 2.35259 290 ft 20 kts 179°
2026-05-05 00:28 48.72587 2.35310 294 ft 19 kts 166°
2026-05-05 00:28 48.72458 2.35355 292 ft 19 kts 175°
2026-05-05 00:28 48.72380 2.35227 291 ft 18 kts 254°
2026-05-05 00:28 48.72347 2.35045 292 ft 18 kts 256°
2026-05-05 00:29 48.72357 2.34868 292 ft 17 kts 292°
2026-05-05 00:29 48.72404 2.34706 295 ft 17 kts 294°
2026-05-05 00:29 48.72449 2.34545 293 ft 16 kts 291°
2026-05-05 00:29 48.72494 2.34392 293 ft 16 kts 294°
2026-05-05 00:30 48.72537 2.34243 292 ft 16 kts 293°
2026-05-05 00:30 48.72559 2.34057 294 ft 20 kts 255°
2026-05-05 00:30 48.72493 2.33873 295 ft 20 kts 242°
2026-05-05 00:30 48.72430 2.33694 293 ft 19 kts 242°
2026-05-05 00:31 48.72369 2.33521 293 ft 18 kts 243°
2026-05-05 00:31 48.72312 2.33354 293 ft 18 kts 240°
2026-05-05 00:31 48.72249 2.33174 292 ft 22 kts 244°
2026-05-05 00:31 48.72168 2.32943 292 ft 27 kts 242°
2026-05-05 00:32 48.72075 2.32683 293 ft 28 kts 242°
2026-05-05 00:32 48.71997 2.32467 296 ft 22 kts 241°
2026-05-05 00:32 48.71924 2.32267 295 ft 21 kts 241°
2026-05-05 00:32 48.71856 2.32069 293 ft 21 kts 244°
2026-05-05 00:33 48.71818 2.31865 292 ft 20 kts 276°
2026-05-05 00:33 48.71858 2.31755 292 ft 0 kts 322°
2026-05-05 00:34 48.71870 2.31743 293 ft 5 kts 329°
2026-05-05 00:34 48.71924 2.31717 295 ft 12 kts 355°
2026-05-05 00:35 48.72016 2.31764 295 ft 17 kts 43°
2026-05-05 00:35 48.72089 2.31946 289 ft 24 kts 62°
2026-05-05 00:35 48.72249 2.32390 294 ft 79 kts 62°
2026-05-05 00:35 48.72609 2.33408 293 ft 137 kts 62°
2026-05-05 00:36 48.73147 2.34873 356 ft 177 kts 61°
2026-05-05 00:36 48.73739 2.36616 776 ft 193 kts 62°
2026-05-05 00:36 48.74373 2.38478 1342 ft 198 kts 62°
2026-05-05 00:36 48.74996 2.40381 1811 ft 209 kts 64°
2026-05-05 00:37 48.75577 2.42445 2072 ft 224 kts 68°
2026-05-05 00:37 48.76083 2.44735 2380 ft 237 kts 79°
2026-05-05 00:37 48.76020 2.47309 2653 ft 252 kts 98°
2026-05-05 00:37 48.75755 2.49973 3237 ft 258 kts 96°
2026-05-05 00:38 48.75535 2.52688 3915 ft 260 kts 96°
2026-05-05 00:38 48.75283 2.55432 4524 ft 266 kts 99°
2026-05-05 00:38 48.74682 2.58104 5009 ft 277 kts 119°
2026-05-05 00:38 48.73390 2.60398 5223 ft 297 kts 140°
2026-05-05 00:39 48.71559 2.61949 5688 ft 306 kts 160°
2026-05-05 00:39 48.69404 2.62524 5854 ft 326 kts 177°
2026-05-05 00:39 48.67089 2.62533 6086 ft 339 kts 184°
2026-05-05 00:39 48.64811 2.61840 6738 ft 336 kts 198°
2026-05-05 00:40 48.62661 2.60403 7179 ft 343 kts 209°
2026-05-05 00:40 48.60801 2.58111 7477 ft 352 kts 231°
2026-05-05 00:40 48.59420 2.54991 7679 ft 362 kts 236°
2026-05-05 00:40 48.58003 2.51873 8137 ft 349 kts 232°
2026-05-05 00:41 48.56541 2.49122 8529 ft 322 kts 230°
2026-05-05 00:41 48.55166 2.46615 8808 ft 299 kts 230°
2026-05-05 00:41 48.53880 2.44237 8984 ft 285 kts 230°
2026-05-05 00:41 48.52645 2.41956 9139 ft 281 kts 227°
2026-05-05 00:42 48.51071 2.40165 9467 ft 289 kts 209°
2026-05-05 00:42 48.49323 2.38667 10196 ft 290 kts 209°
2026-05-05 00:42 48.47517 2.37115 10441 ft 309 kts 209°
2026-05-05 00:42 48.45584 2.35440 10601 ft 330 kts 210°
2026-05-05 00:43 48.43538 2.33652 10735 ft 350 kts 210°
2026-05-05 00:43 48.41376 2.31755 10908 ft 368 kts 210°
2026-05-05 00:43 48.39122 2.29831 11290 ft 377 kts 205°
2026-05-05 00:43 48.36609 2.28678 11793 ft 381 kts 186°
2026-05-05 00:44 48.33965 2.28775 12464 ft 382 kts 171°
2026-05-05 00:44 48.31366 2.29451 13095 ft 385 kts 171°
2026-05-05 00:44 48.28708 2.30124 13687 ft 389 kts 171°
2026-05-05 00:44 48.26019 2.30790 14238 ft 393 kts 171°
2026-05-05 00:45 48.23309 2.31450 14845 ft 395 kts 171°
2026-05-05 00:45 48.20591 2.32102 15460 ft 397 kts 171°
2026-05-05 00:45 48.17856 2.32751 16065 ft 399 kts 171°
2026-05-05 00:45 48.15101 2.33400 16630 ft 403 kts 171°
2026-05-05 00:46 48.12315 2.34054 17163 ft 407 kts 171°
2026-05-05 00:46 48.09503 2.34712 17703 ft 411 kts 171°
2026-05-05 00:46 48.06672 2.35373 18218 ft 414 kts 171°
2026-05-05 00:46 48.03812 2.36040 18717 ft 416 kts 171°
2026-05-05 00:47 48.00948 2.36707 19250 ft 417 kts 171°
2026-05-05 00:47 47.98070 2.37377 19772 ft 419 kts 171°
2026-05-05 00:47 47.95187 2.38047 20251 ft 420 kts 171°
2026-05-05 00:47 47.92289 2.38720 20745 ft 422 kts 171°
2026-05-05 00:48 47.89380 2.39395 21206 ft 425 kts 171°
2026-05-05 00:48 47.86447 2.40075 21655 ft 427 kts 172°
2026-05-05 00:48 47.83506 2.40755 22103 ft 429 kts 172°
2026-05-05 00:48 47.80554 2.41438 22516 ft 431 kts 172°
2026-05-05 00:49 47.77589 2.42122 22947 ft 432 kts 172°
2026-05-05 00:49 47.74610 2.42809 23373 ft 434 kts 172°
2026-05-05 00:49 47.71621 2.43498 23742 ft 436 kts 172°
2026-05-05 00:49 47.68622 2.44189 24135 ft 436 kts 172°
2026-05-05 00:50 47.65623 2.44878 24536 ft 436 kts 172°
2026-05-05 00:50 47.62624 2.45567 24920 ft 436 kts 172°
2026-05-05 00:50 47.59622 2.46255 25277 ft 436 kts 172°
2026-05-05 00:50 47.56658 2.46934 25621 ft 437 kts 172°
2026-05-05 00:51 47.53655 2.47621 25981 ft 437 kts 172°
2026-05-05 00:51 47.50643 2.48309 26338 ft 437 kts 172°
2026-05-05 00:51 47.47640 2.48995 26690 ft 437 kts 172°
2026-05-05 00:51 47.44639 2.49679 27159 ft 434 kts 172°
2026-05-05 00:52 47.41675 2.50355 27706 ft 429 kts 172°
2026-05-05 00:52 47.38750 2.51021 28329 ft 423 kts 172°
2026-05-05 00:52 47.35854 2.51680 28922 ft 418 kts 172°
2026-05-05 00:52 47.32994 2.52209 29537 ft 412 kts 175°
2026-05-05 00:53 47.30150 2.52532 30113 ft 407 kts 176°
2026-05-05 00:53 47.27332 2.52785 30458 ft 406 kts 176°
2026-05-05 00:53 47.24503 2.53022 30652 ft 408 kts 177°
2026-05-05 00:53 47.21657 2.53264 30916 ft 409 kts 177°
2026-05-05 00:54 47.18827 2.53516 31275 ft 407 kts 177°
2026-05-05 00:54 47.16038 2.53774 31635 ft 405 kts 177°
2026-05-05 00:54 47.13225 2.54042 31888 ft 406 kts 176°
2026-05-05 00:54 47.10393 2.54316 32097 ft 408 kts 176°
2026-05-05 00:55 47.07566 2.54593 32399 ft 407 kts 176°
2026-05-05 00:55 47.04743 2.54871 32760 ft 405 kts 177°
2026-05-05 00:55 47.01933 2.55147 33080 ft 404 kts 177°
2026-05-05 00:55 46.99130 2.55423 33340 ft 404 kts 177°
2026-05-05 00:56 46.96325 2.55699 33600 ft 404 kts 177°
2026-05-05 00:56 46.93522 2.55974 33893 ft 403 kts 177°
2026-05-05 00:56 46.90713 2.56249 34012 ft 406 kts 177°
2026-05-05 00:56 46.87888 2.56526 34144 ft 408 kts 177°
2026-05-05 00:57 46.85055 2.56802 34328 ft 408 kts 177°
2026-05-05 00:57 46.82214 2.57080 34491 ft 409 kts 177°
2026-05-05 00:57 46.79367 2.57358 34628 ft 411 kts 177°
2026-05-05 00:57 46.76510 2.57636 34796 ft 412 kts 177°
2026-05-05 00:58 46.73655 2.57914 34958 ft 413 kts 178°
2026-05-05 00:58 46.70775 2.58194 35097 ft 414 kts 178°
2026-05-05 00:58 46.67929 2.58470 35254 ft 415 kts 178°
2026-05-05 00:58 46.65043 2.58751 35413 ft 416 kts 178°
2026-05-05 00:59 46.62141 2.59032 35554 ft 417 kts 178°
2026-05-05 00:59 46.59233 2.59313 35694 ft 419 kts 178°
2026-05-05 00:59 46.56320 2.59595 35851 ft 419 kts 178°
2026-05-05 00:59 46.53407 2.59877 35993 ft 421 kts 178°
2026-05-05 01:00 46.50480 2.60159 36133 ft 422 kts 178°
2026-05-05 01:00 46.47552 2.60442 36298 ft 422 kts 178°
2026-05-05 01:00 46.44611 2.60725 36423 ft 423 kts 178°
2026-05-05 01:00 46.41672 2.61007 36563 ft 424 kts 178°
2026-05-05 01:01 46.38722 2.61291 36715 ft 425 kts 178°
2026-05-05 01:01 46.35804 2.61571 36848 ft 426 kts 178°
2026-05-05 01:01 46.32839 2.61855 36889 ft 429 kts 178°
2026-05-05 01:02 46.26871 2.62427 36902 ft 430 kts 178°
2026-05-05 01:02 46.20905 2.62997 36905 ft 429 kts 178°
2026-05-05 01:03 46.14947 2.63565 36902 ft 428 kts 178°
2026-05-05 01:03 46.09004 2.64131 36907 ft 427 kts 178°
2026-05-05 01:04 46.03115 2.64690 36900 ft 426 kts 178°
2026-05-05 01:04 45.94229 2.65531 36913 ft 424 kts 178°
2026-05-05 01:05 45.88334 2.66087 36972 ft 426 kts 178°
2026-05-05 01:05 45.85383 2.66365 37138 ft 426 kts 178°
2026-05-05 01:05 45.82424 2.66644 37326 ft 425 kts 179°
2026-05-05 01:06 45.79471 2.66922 37443 ft 426 kts 179°
2026-05-05 01:06 45.76508 2.67200 37541 ft 427 kts 179°
2026-05-05 01:06 45.73579 2.67475 37696 ft 427 kts 179°
2026-05-05 01:06 45.70614 2.67753 37887 ft 427 kts 179°
2026-05-05 01:07 45.64665 2.68310 37923 ft 429 kts 179°
2026-05-05 01:07 45.58713 2.68866 37914 ft 427 kts 179°
2026-05-05 01:08 45.52798 2.69419 37919 ft 425 kts 179°
2026-05-05 01:08 45.46899 2.69968 37917 ft 423 kts 179°
2026-05-05 01:09 45.42021 2.70420 37925 ft 422 kts 179°
2026-05-05 01:09 45.36161 2.70963 37899 ft 422 kts 179°
2026-05-05 01:10 45.30309 2.71504 37921 ft 421 kts 179°
2026-05-05 01:10 45.24463 2.72045 37934 ft 421 kts 179°
2026-05-05 01:11 45.18610 2.72583 37935 ft 422 kts 179°
2026-05-05 01:11 45.12754 2.73119 37932 ft 424 kts 179°
2026-05-05 01:12 45.06828 2.73663 37935 ft 425 kts 179°
2026-05-05 01:12 45.00915 2.74204 37933 ft 426 kts 179°
2026-05-05 01:13 44.95034 2.74741 37929 ft 427 kts 179°
2026-05-05 01:13 44.89101 2.75282 37937 ft 427 kts 179°
2026-05-05 01:14 44.83173 2.75822 37939 ft 427 kts 179°
2026-05-05 01:14 44.77249 2.76360 37931 ft 426 kts 179°
2026-05-05 01:15 44.71333 2.76896 37941 ft 425 kts 179°
2026-05-05 01:15 44.65428 2.77430 37938 ft 425 kts 179°
2026-05-05 01:16 44.59532 2.77962 37937 ft 424 kts 179°
2026-05-05 01:16 44.53683 2.78488 37936 ft 423 kts 179°
2026-05-05 01:17 44.47807 2.79016 37942 ft 423 kts 179°
2026-05-05 01:17 44.41936 2.79542 37938 ft 422 kts 179°
2026-05-05 01:18 44.36071 2.80067 37929 ft 422 kts 179°
2026-05-05 01:18 44.30211 2.80590 37943 ft 422 kts 179°
2026-05-05 01:19 44.24336 2.81114 37946 ft 423 kts 179°
2026-05-05 01:19 44.18458 2.81637 37931 ft 424 kts 179°
2026-05-05 01:20 44.12558 2.82161 37945 ft 425 kts 179°
2026-05-05 01:20 44.06644 2.82684 37950 ft 426 kts 179°
2026-05-05 01:21 44.00755 2.83205 37945 ft 427 kts 179°
2026-05-05 01:21 43.94804 2.83731 37939 ft 428 kts 179°
2026-05-05 01:22 43.88844 2.84256 37947 ft 429 kts 179°
2026-05-05 01:22 43.82869 2.84781 37940 ft 431 kts 179°
2026-05-05 01:23 43.76884 2.85272 37923 ft 431 kts 181°
2026-05-05 01:23 43.70926 2.85407 37936 ft 430 kts 183°
2026-05-05 01:24 43.64938 2.85435 37940 ft 431 kts 182°
2026-05-05 01:24 43.58906 2.85490 37908 ft 431 kts 183°
2026-05-05 01:25 43.52947 2.85569 37923 ft 431 kts 182°
2026-05-05 01:25 43.46953 2.85657 37934 ft 430 kts 182°
2026-05-05 01:26 43.40967 2.85746 37917 ft 430 kts 182°
2026-05-05 01:26 43.34981 2.85834 37915 ft 430 kts 183°
2026-05-05 01:27 43.29007 2.85921 37915 ft 429 kts 183°
2026-05-05 01:27 43.23028 2.86008 37930 ft 429 kts 183°
2026-05-05 01:28 43.17065 2.86094 37860 ft 429 kts 184°
2026-05-05 01:28 43.14047 2.86136 37347 ft 435 kts 184°
2026-05-05 01:28 43.11034 2.86180 36792 ft 432 kts 184°
2026-05-05 01:29 43.08036 2.86225 36256 ft 430 kts 184°
2026-05-05 01:29 43.05048 2.86269 35642 ft 430 kts 184°
2026-05-05 01:29 43.02058 2.86312 35005 ft 430 kts 184°
2026-05-05 01:29 42.99064 2.86354 34372 ft 431 kts 184°
2026-05-05 01:30 42.96066 2.86397 33665 ft 431 kts 184°
2026-05-05 01:30 42.93063 2.86440 32923 ft 432 kts 184°
2026-05-05 01:30 42.90075 2.86485 32474 ft 426 kts 184°
2026-05-05 01:30 42.87118 2.86529 31982 ft 423 kts 184°
2026-05-05 01:31 42.84188 2.86572 31518 ft 418 kts 184°
2026-05-05 01:31 42.81295 2.86613 31056 ft 414 kts 184°
2026-05-05 01:31 42.78464 2.86653 30607 ft 411 kts 184°
2026-05-05 01:31 42.75619 2.86693 30158 ft 407 kts 185°
2026-05-05 01:32 42.72817 2.86520 29627 ft 401 kts 189°
2026-05-05 01:32 42.70059 2.86191 29167 ft 395 kts 190°
2026-05-05 01:32 42.67335 2.85847 28694 ft 391 kts 190°
2026-05-05 01:32 42.64635 2.85507 28228 ft 387 kts 190°
2026-05-05 01:33 42.61967 2.85179 27780 ft 383 kts 189°
2026-05-05 01:33 42.59326 2.84871 27312 ft 380 kts 189°
2026-05-05 01:33 42.56701 2.84568 26855 ft 376 kts 190°
2026-05-05 01:33 42.54110 2.84252 26421 ft 373 kts 189°
2026-05-05 01:34 42.51541 2.83944 25983 ft 370 kts 189°
2026-05-05 01:34 42.48982 2.83643 25563 ft 367 kts 189°
2026-05-05 01:34 42.46445 2.83346 25125 ft 365 kts 189°
2026-05-05 01:34 42.43939 2.82988 24812 ft 358 kts 193°
2026-05-05 01:35 42.41503 2.82431 24584 ft 354 kts 194°
2026-05-05 01:35 42.39044 2.81790 24368 ft 365 kts 195°
2026-05-05 01:35 42.36521 2.81122 24097 ft 373 kts 196°
2026-05-05 01:35 42.34068 2.80111 23847 ft 365 kts 207°
2026-05-05 01:36 42.31849 2.78504 23619 ft 359 kts 216°
2026-05-05 01:36 42.29858 2.76507 23355 ft 355 kts 221°
2026-05-05 01:36 42.27950 2.74448 23086 ft 356 kts 220°
2026-05-05 01:36 42.26018 2.72364 22831 ft 356 kts 220°
2026-05-05 01:37 42.24084 2.70283 22577 ft 355 kts 220°
2026-05-05 01:37 42.22154 2.68222 22211 ft 351 kts 220°
2026-05-05 01:37 42.20273 2.66215 21860 ft 339 kts 220°
2026-05-05 01:37 42.18427 2.64247 21187 ft 329 kts 220°
2026-05-05 01:38 42.16687 2.62394 20566 ft 318 kts 220°
2026-05-05 01:38 42.14979 2.60578 19992 ft 306 kts 220°
2026-05-05 01:38 42.13326 2.58823 19467 ft 301 kts 220°
2026-05-05 01:38 42.11686 2.57080 18930 ft 300 kts 220°
2026-05-05 01:39 42.10047 2.55340 18449 ft 299 kts 220°
2026-05-05 01:39 42.08415 2.53608 17923 ft 299 kts 220°
2026-05-05 01:39 42.06787 2.51883 17363 ft 296 kts 220°
2026-05-05 01:39 42.05171 2.50173 16812 ft 294 kts 220°
2026-05-05 01:40 42.03570 2.48480 16267 ft 291 kts 220°
2026-05-05 01:40 42.02012 2.46833 16127 ft 275 kts 220°
2026-05-05 01:40 42.00557 2.45303 15958 ft 256 kts 220°
2026-05-05 01:40 41.99158 2.43954 15846 ft 239 kts 213°
2026-05-05 01:41 41.97743 2.42930 15694 ft 224 kts 211°
2026-05-05 01:41 41.96370 2.41992 15283 ft 222 kts 211°
2026-05-05 01:41 41.95000 2.41061 14903 ft 216 kts 211°
2026-05-05 01:41 41.93689 2.40166 14763 ft 209 kts 211°
2026-05-05 01:42 41.92375 2.39259 14656 ft 217 kts 211°
2026-05-05 01:42 41.91026 2.38318 14525 ft 224 kts 211°
2026-05-05 01:42 41.89642 2.37352 14375 ft 224 kts 211°
2026-05-05 01:42 41.88261 2.36387 14226 ft 222 kts 211°
2026-05-05 01:43 41.86895 2.35431 14085 ft 221 kts 211°
2026-05-05 01:43 41.85532 2.34478 13895 ft 222 kts 211°
2026-05-05 01:43 41.84131 2.33500 13628 ft 237 kts 211°
2026-05-05 01:43 41.82565 2.32391 13426 ft 272 kts 211°
2026-05-05 01:44 41.80785 2.31133 13214 ft 306 kts 210°
2026-05-05 01:44 41.78839 2.29763 12956 ft 320 kts 210°
2026-05-05 01:44 41.76867 2.28381 12704 ft 320 kts 210°
2026-05-05 01:44 41.74896 2.27002 12423 ft 318 kts 210°
2026-05-05 01:45 41.72944 2.25637 12164 ft 316 kts 210°
2026-05-05 01:45 41.71005 2.24281 11908 ft 314 kts 210°
2026-05-05 01:45 41.69071 2.22932 11655 ft 312 kts 210°
2026-05-05 01:45 41.67147 2.21587 11395 ft 311 kts 210°
2026-05-05 01:46 41.65262 2.20265 11151 ft 309 kts 210°
2026-05-05 01:46 41.63360 2.18929 10914 ft 308 kts 210°
2026-05-05 01:46 41.61466 2.17596 10669 ft 308 kts 210°
2026-05-05 01:46 41.59573 2.16270 10422 ft 307 kts 210°
2026-05-05 01:47 41.57686 2.14951 10181 ft 306 kts 210°
2026-05-05 01:47 41.55795 2.13632 9942 ft 306 kts 210°
2026-05-05 01:47 41.53913 2.12321 9731 ft 301 kts 211°
2026-05-05 01:47 41.52344 2.10777 9959 ft 262 kts 230°
2026-05-05 01:48 41.51327 2.08868 9798 ft 247 kts 243°
2026-05-05 01:48 41.50599 2.06767 9528 ft 254 kts 247°
2026-05-05 01:48 41.49911 2.04555 9289 ft 262 kts 248°
2026-05-05 01:48 41.49214 2.02276 9040 ft 267 kts 248°
2026-05-05 01:49 41.48505 1.99964 8800 ft 270 kts 248°
2026-05-05 01:49 41.47796 1.97664 8531 ft 267 kts 248°
2026-05-05 01:49 41.47091 1.95393 8268 ft 263 kts 248°
2026-05-05 01:49 41.46393 1.93154 8016 ft 260 kts 248°
2026-05-05 01:50 41.45709 1.90970 7766 ft 257 kts 248°
2026-05-05 01:50 41.45015 1.88755 7505 ft 255 kts 248°
2026-05-05 01:50 41.44342 1.86614 7265 ft 252 kts 248°
2026-05-05 01:50 41.43667 1.84467 7012 ft 250 kts 248°
2026-05-05 01:51 41.42997 1.82338 6757 ft 248 kts 248°
2026-05-05 01:51 41.42331 1.80226 6505 ft 246 kts 248°
2026-05-05 01:51 41.41672 1.78137 6272 ft 244 kts 248°
2026-05-05 01:51 41.41018 1.76067 6065 ft 240 kts 248°
2026-05-05 01:52 41.40382 1.74057 5992 ft 231 kts 249°
2026-05-05 01:52 41.39771 1.72127 5987 ft 224 kts 249°
2026-05-05 01:52 41.39167 1.70217 5994 ft 224 kts 249°
2026-05-05 01:52 41.38554 1.68305 6005 ft 226 kts 247°
2026-05-05 01:53 41.37952 1.66373 5959 ft 227 kts 252°
2026-05-05 01:53 41.37412 1.64399 5992 ft 224 kts 248°
2026-05-05 01:53 41.36782 1.62503 5986 ft 224 kts 248°
2026-05-05 01:53 41.36153 1.60599 5994 ft 224 kts 248°
2026-05-05 01:54 41.35534 1.58696 5999 ft 224 kts 248°
2026-05-05 01:54 41.34846 1.56848 5983 ft 225 kts 234°
2026-05-05 01:54 41.34083 1.55917 6003 ft 227 kts 214°
2026-05-05 01:54 41.32036 1.55202 5996 ft 236 kts 180°
2026-05-05 01:55 41.30943 1.55365 6017 ft 241 kts 175°
2026-05-05 01:55 41.29269 1.55700 6007 ft 245 kts 175°
2026-05-05 01:55 41.27593 1.56046 5991 ft 243 kts 175°
2026-05-05 01:55 41.25391 1.56498 5982 ft 240 kts 175°
2026-05-05 01:56 41.24279 1.56724 5986 ft 239 kts 175°
2026-05-05 01:56 41.22628 1.57052 5984 ft 238 kts 175°
2026-05-05 01:56 41.20992 1.57373 5989 ft 237 kts 175°
2026-05-05 01:56 41.19355 1.57691 6004 ft 239 kts 175°
2026-05-05 01:57 41.17730 1.58007 5994 ft 240 kts 175°
2026-05-05 01:57 41.16073 1.58337 6001 ft 241 kts 173°
2026-05-05 01:57 41.14538 1.59257 5986 ft 249 kts 139°
2026-05-05 01:57 41.13627 1.61219 5943 ft 257 kts 103°
2026-05-05 01:58 41.13485 1.63627 6009 ft 266 kts 91°
2026-05-05 01:58 41.13461 1.66068 5984 ft 263 kts 91°
2026-05-05 01:58 41.13431 1.68477 5971 ft 260 kts 91°
2026-05-05 01:58 41.13392 1.70864 5877 ft 260 kts 91°
2026-05-05 01:59 41.13344 1.73246 5853 ft 255 kts 93°
2026-05-05 01:59 41.13168 1.75572 5845 ft 252 kts 98°
2026-05-05 01:59 41.12932 1.77880 5848 ft 254 kts 98°
2026-05-05 01:59 41.12696 1.80218 5858 ft 258 kts 98°
2026-05-05 02:00 41.12465 1.82574 5859 ft 258 kts 98°
2026-05-05 02:00 41.12239 1.84905 5856 ft 257 kts 98°
2026-05-05 02:00 41.11805 1.87214 5829 ft 255 kts 122°
2026-05-05 02:00 41.10601 1.88854 5839 ft 246 kts 155°
2026-05-05 02:01 41.09007 1.89489 5853 ft 235 kts 180°
2026-05-05 02:01 41.07447 1.89264 5751 ft 219 kts 199°
2026-05-05 02:01 41.06058 1.88677 5627 ft 207 kts 202°
2026-05-05 02:01 41.04727 1.88049 5518 ft 201 kts 203°
2026-05-05 02:02 41.03411 1.87429 5375 ft 199 kts 203°
2026-05-05 02:02 41.02106 1.86825 5066 ft 199 kts 203°
2026-05-05 02:02 41.00792 1.86222 4723 ft 200 kts 203°
2026-05-05 02:02 40.99477 1.85622 4425 ft 199 kts 202°
2026-05-05 02:03 40.98183 1.85032 4266 ft 193 kts 203°
2026-05-05 02:03 40.96909 1.84453 4171 ft 194 kts 202°
2026-05-05 02:03 40.95613 1.83864 4110 ft 199 kts 202°
2026-05-05 02:03 40.94291 1.83264 4038 ft 202 kts 202°
2026-05-05 02:04 40.92961 1.82663 3960 ft 201 kts 202°
2026-05-05 02:04 40.91598 1.82383 3856 ft 202 kts 173°
2026-05-05 02:04 40.90353 1.83191 3800 ft 203 kts 139°
2026-05-05 02:04 40.89601 1.84770 3723 ft 207 kts 105°
2026-05-05 02:05 40.89560 1.86659 3660 ft 207 kts 76°
2026-05-05 02:05 40.90049 1.88419 3739 ft 207 kts 58°
2026-05-05 02:05 40.90625 1.90224 3544 ft 214 kts 74°
2026-05-05 02:05 40.91207 1.91973 3470 ft 211 kts 44°
2026-05-05 02:06 40.92454 1.92828 3372 ft 200 kts
2026-05-05 02:06 40.93811 1.93040 3389 ft 196 kts
2026-05-05 02:06 40.94099 1.93129 3375 ft 198 kts 13°
2026-05-05 02:07 40.95156 1.93596 3321 ft 201 kts
2026-05-05 02:07 40.96538 1.93810 3196 ft 198 kts 358°
2026-05-05 02:07 40.97882 1.94025 3014 ft 193 kts 13°
2026-05-05 02:07 40.99111 1.94679 2845 ft 190 kts 20°
2026-05-05 02:08 41.00320 1.95331 2811 ft 185 kts 18°
2026-05-05 02:08 41.01523 1.95955 2752 ft 186 kts 17°
2026-05-05 02:08 41.02735 1.96543 2738 ft 185 kts 16°
2026-05-05 02:08 41.03954 1.97109 2702 ft 186 kts 15°
2026-05-05 02:09 41.05166 1.97678 2705 ft 184 kts 16°
2026-05-05 02:09 41.06371 1.98252 2695 ft 186 kts 14°
2026-05-05 02:09 41.07614 1.98784 2582 ft 188 kts 14°
2026-05-05 02:09 41.08848 1.99321 2527 ft 184 kts 15°
2026-05-05 02:10 41.10042 1.99871 2440 ft 184 kts 15°
2026-05-05 02:10 41.11237 2.00456 2375 ft 183 kts 17°
2026-05-05 02:10 41.12443 2.00996 2289 ft 181 kts 15°
2026-05-05 02:10 41.13617 2.01533 2237 ft 179 kts 17°
2026-05-05 02:11 41.14817 2.02091 2062 ft 183 kts 15°
2026-05-05 02:11 41.16002 2.02653 1983 ft 178 kts 17°
2026-05-05 02:11 41.17144 2.03183 1910 ft 170 kts 13°
2026-05-05 02:11 41.18253 2.03646 1875 ft 162 kts 14°
2026-05-05 02:12 41.19359 2.04158 1868 ft 172 kts 18°
2026-05-05 02:12 41.21626 2.05132 1525 ft 170 kts 11°
2026-05-05 02:12 41.22739 2.05639 1236 ft 170 kts 20°
2026-05-05 02:13 41.23824 2.06249 958 ft 165 kts 17°
2026-05-05 02:13 41.24889 2.06680 827 ft 155 kts 12°
2026-05-05 02:13 41.25936 2.07204 669 ft 165 kts 14°
2026-05-05 02:13 41.27012 2.07654 472 ft 159 kts 17°
2026-05-05 02:14 41.28030 2.08143 212 ft 155 kts 17°
2026-05-05 02:14 41.29017 2.08587 30 ft 143 kts 16°
2026-05-05 02:14 41.29859 2.08960 16 ft 103 kts 20°
2026-05-05 02:14 41.30331 2.09190 15 ft 42 kts 19°
2026-05-05 02:15 41.30545 2.09276 18 ft 27 kts 357°
2026-05-05 02:15 41.30620 2.09228 18 ft 0 kts 317°
2026-05-05 02:17 41.30624 2.09223 18 ft 1 kts 317°
2026-05-05 02:17 41.30633 2.09212 17 ft 2 kts 317°
2026-05-05 02:17 41.30644 2.09199 17 ft 2 kts 317°
2026-05-05 02:18 41.30655 2.09185 17 ft 2 kts 317°
2026-05-05 02:18 41.30668 2.09162 17 ft 6 kts 298°
2026-05-05 02:18 41.30646 2.09084 17 ft 14 kts 218°
2026-05-05 02:18 41.30525 2.09023 17 ft 23 kts 199°
2026-05-05 02:19 41.30392 2.08909 17 ft 23 kts 243°
2026-05-05 02:19 41.30329 2.08717 17 ft 22 kts 247°
2026-05-05 02:19 41.30263 2.08532 19 ft 22 kts 252°
2026-05-05 02:19 41.30281 2.08382 17 ft 10 kts 274°
2026-05-05 02:20 41.30323 2.08323 17 ft 9 kts 346°
2026-05-05 02:20 41.30353 2.08314 17 ft 0 kts 341°
2026-05-05 02:20 41.30353 2.08315 17 ft 0 kts 341°
2026-05-05 02:21 41.30343 2.08310 17 ft 2 kts 30°
2026-05-05 02:21 41.30329 2.08299 19 ft 2 kts 14°
2026-05-05 02:21 41.30325 2.08298 20 ft 0 kts 355°
2026-05-05 02:22 41.30327 2.08297 20 ft 0 kts 352°
2026-05-05 02:30 41.30326 2.08297 17 ft 0 kts 352°